TimeMST,TemperatureF,Dew PointF,Humidity,Sea Level PressureIn,VisibilityMPH,Wind Direction,Wind SpeedMPH,Gust SpeedMPH,PrecipitationIn,Events,Conditions,WindDirDegrees,DateUTC
12:57 AM,27.0,14.0,58,30.07,10.0,ENE,8.1,-,N/A,,Clear,70,2012-02-07 07:57:00
1:57 AM,27.0,15.1,61,30.08,10.0,East,9.2,-,N/A,,Clear,80,2012-02-07 08:57:00
2:57 AM,27.0,14.0,58,30.06,10.0,ENE,9.2,-,N/A,,Clear,70,2012-02-07 09:57:00
3:57 AM,26.1,12.9,58,30.07,10.0,ENE,9.2,-,N/A,,Clear,70,2012-02-07 10:57:00
4:57 AM,26.1,12.0,55,30.09,10.0,East,6.9,-,N/A,,Clear,80,2012-02-07 11:57:00
5:57 AM,25.0,12.0,58,30.12,10.0,ENE,8.1,-,N/A,,Clear,70,2012-02-07 12:57:00
6:57 AM,25.0,12.9,60,30.17,10.0,East,6.9,-,N/A,,Clear,80,2012-02-07 13:57:00
7:57 AM,25.0,15.1,66,30.19,10.0,ENE,6.9,-,N/A,,Clear,70,2012-02-07 14:57:00
8:57 AM,27.0,18.0,69,30.18,10.0,ENE,10.4,-,N/A,,Clear,60,2012-02-07 15:57:00
9:57 AM,30.0,19.0,64,30.18,10.0,ENE,10.4,-,N/A,,Clear,70,2012-02-07 16:57:00
10:57 AM,30.0,17.1,59,30.19,10.0,East,12.7,-,N/A,,Clear,80,2012-02-07 17:57:00
11:57 AM,33.1,18.0,54,30.16,10.0,East,8.1,-,N/A,,Clear,90,2012-02-07 18:57:00
12:57 PM,35.1,14.0,42,30.13,10.0,ENE,11.5,-,N/A,,Clear,70,2012-02-07 19:57:00
1:57 PM,36.0,12.0,37,30.10,10.0,ENE,9.2,-,N/A,,Partly Cloudy,60,2012-02-07 20:57:00
2:57 PM,37.9,14.0,38,30.09,10.0,ENE,5.8,-,N/A,,Clear,60,2012-02-07 21:57:00
3:57 PM,36.0,15.1,43,30.10,10.0,ENE,10.4,-,N/A,,Mostly Cloudy,60,2012-02-07 22:57:00
4:57 PM,35.1,15.1,44,30.11,10.0,ENE,6.9,-,N/A,,Mostly Cloudy,60,2012-02-07 23:57:00
5:57 PM,33.1,15.1,48,30.13,10.0,ENE,5.8,-,N/A,,Mostly Cloudy,60,2012-02-08 00:57:00
6:57 PM,32.0,15.1,50,30.14,10.0,NE,3.5,-,N/A,,Overcast,50,2012-02-08 01:57:00
7:57 PM,30.9,15.1,52,30.17,10.0,NE,3.5,-,N/A,,Mostly Cloudy,40,2012-02-08 02:57:00
8:57 PM,30.0,16.0,56,30.17,10.0,NNE,4.6,-,N/A,,Scattered Clouds,20,2012-02-08 03:57:00
9:57 PM,30.0,16.0,56,30.16,10.0,NNE,3.5,-,N/A,,Mostly Cloudy,20,2012-02-08 04:57:00
10:57 PM,30.9,17.1,57,30.15,10.0,NE,6.9,-,N/A,,Mostly Cloudy,40,2012-02-08 05:57:00
11:57 PM,30.0,17.1,59,30.14,10.0,NNE,4.6,-,N/A,,Partly Cloudy,30,2012-02-08 06:57:00